Red Wing, WI

6:46 AM CDT on April 23, 2017 (GMT -0500)
Red Wing Municipal

Weather History for KRGK - April, 2014

Change the Weather History Date:

Monday, April 7, 2014

  Actual Average Record
Temperature  
Mean Temperature 48 °F -  
Max Temperature 62 °F 51 °F 71 °F (1999)
Min Temperature 35 °F 31 °F 14 °F (1997)
Degree Days  
Heating Degree Days 16    
Moisture  
Dew Point 37 °F    
Average Humidity 76    
Maximum Humidity 100    
Minimum Humidity 39    
Precipitation  
Precipitation 0.01 in - - ()
Sea Level Pressure  
Sea Level Pressure 29.78 in    
Wind  
Wind Speed 2 mph (NNW)    
Max Wind Speed 15 mph    
Max Gust Speed 22 mph    
Visibility 7 miles    
Events Rain    
Averages and records for this station are not official NWS values.
T = Trace of Precipitation, MM = Missing Value Source: NWS Daily Summary

Daily Weather History Graph

Daily Weather History Graph

Search for Another Location

Airport or City:

Trip Planner

Search our weather history database for the weather conditions in past years. The results will help you decide how hot, cold, wet, or windy it might be!

Date:

Astronomy

Apr. 07, 2014 Rise Set
Actual Time 6:39 AM CDT 7:44 PM CDT
Civil Twilight 6:10 AM CDT 8:14 PM CDT
Nautical Twilight 5:34 AM CDT 8:50 PM CDT
Astronomical Twilight 4:57 AM CDT 9:28 PM CDT
Moon 12:30 PM CDT (4/7) 2:29 AM CDT (4/7)
Length of Visible Light 14h 04m
Length of Day
13h 05m
First Quarter, 53% of the Moon is Illuminated
Apr 7
First Quarter
Apr 15
Full
Apr 22
Last Quarter
Apr 29
New
May 6
First Quarter

Hourly Weather History & Observations

Time (CDT) Temp. Windchill Dew Point Humidity Pressure Visibility Wind Dir Wind Speed Gust Speed Precip Events Conditions
12:13 AM 44.6 °F - 41.0 °F 87% 29.86 in 10.0 mi Calm Calm - N/A   Scattered Clouds
12:35 AM 44.6 °F - 41.0 °F 87% 29.85 in 10.0 mi Calm Calm - N/A   Clear
12:55 AM 42.8 °F 41.1 °F 39.2 °F 87% 29.85 in 10.0 mi North 3.5 mph - N/A   Clear
1:15 AM 42.8 °F 41.1 °F 39.2 °F 87% 29.84 in 10.0 mi NNW 3.5 mph - N/A   Scattered Clouds
1:35 AM 44.6 °F - 41.0 °F 87% 29.84 in 10.0 mi Calm Calm - N/A   Mostly Cloudy
1:55 AM 44.6 °F - 41.0 °F 87% 29.83 in 10.0 mi Calm Calm - N/A   Overcast
2:15 AM 42.8 °F - 39.2 °F 87% 29.83 in 10.0 mi Calm Calm - N/A   Mostly Cloudy
2:35 AM 41.0 °F - 37.4 °F 87% 29.83 in 10.0 mi Calm Calm - N/A   Mostly Cloudy
2:55 AM 39.2 °F - 37.4 °F 93% 29.81 in 10.0 mi Calm Calm - N/A   Mostly Cloudy
3:15 AM 37.4 °F - 35.6 °F 93% 29.80 in 7.0 mi Calm Calm - N/A   Clear
3:35 AM 37.4 °F 34.9 °F 37.4 °F 100% 29.80 in 7.0 mi ESE 3.5 mph - N/A   Clear
3:55 AM 35.6 °F - 35.6 °F 100% 29.79 in 5.0 mi Calm Calm - N/A   Clear
4:15 AM 35.6 °F - 33.8 °F 93% 29.79 in 4.0 mi Calm Calm - N/A   Clear
4:35 AM 35.6 °F - 33.8 °F 93% 29.79 in 5.0 mi Calm Calm - N/A   Scattered Clouds
4:55 AM 35.6 °F - 33.8 °F 93% 29.78 in 4.0 mi Calm Calm - N/A   Clear
5:15 AM 35.6 °F - 33.8 °F 93% 29.78 in 4.0 mi Calm Calm - N/A   Clear
5:35 AM 35.6 °F - 33.8 °F 93% 29.78 in 5.0 mi Calm Calm - N/A   Scattered Clouds
5:55 AM 37.4 °F 34.9 °F 35.6 °F 93% 29.79 in 4.0 mi East 3.5 mph - N/A   Mostly Cloudy
6:15 AM 35.6 °F - 35.6 °F 100% 29.79 in 3.0 mi Calm Calm - N/A   Mostly Cloudy
6:35 AM 37.4 °F - 35.6 °F 93% 29.79 in 3.0 mi Calm Calm - N/A   Mostly Cloudy
6:55 AM 37.4 °F - 35.6 °F 93% 29.80 in 3.0 mi Calm Calm - N/A   Overcast
7:15 AM 37.4 °F - 37.4 °F 100% 29.81 in 3.0 mi Calm Calm - N/A Rain Light Rain
7:35 AM 39.2 °F - 37.4 °F 93% 29.81 in 1.5 mi Calm Calm - N/A Rain Rain
7:55 AM 39.2 °F - 37.4 °F 93% 29.81 in 1.2 mi Calm Calm - N/A Rain Light Rain
8:15 AM 39.2 °F - 37.4 °F 93% 29.81 in 1.0 mi Calm Calm - N/A   Light Drizzle
8:34 AM 39.2 °F - 39.2 °F 100% 29.81 in 1.0 mi Calm Calm - N/A   Overcast
8:55 AM 39.2 °F - 39.2 °F 100% 29.81 in 1.0 mi Calm Calm - N/A Rain Rain
9:15 AM 39.2 °F - 39.2 °F 100% 29.80 in 0.8 mi Calm Calm - N/A   Light Drizzle
9:34 AM 39.2 °F - 39.2 °F 100% 29.80 in 1.2 mi Calm Calm - N/A Rain Rain
9:55 AM 41.0 °F - 39.2 °F 93% 29.80 in 1.8 mi Calm Calm - N/A Rain Light Rain
10:15 AM 42.8 °F - 42.8 °F 100% 29.80 in 1.8 mi Calm Calm - 0.01 in Rain Light Rain
10:35 AM 44.6 °F - 42.8 °F 93% 29.80 in 3.0 mi Calm Calm - 0.01 in Rain Light Rain
10:55 AM 44.6 °F 42.2 °F 44.6 °F 100% 29.79 in 3.0 mi South 4.6 mph - 0.01 in   Light Drizzle
11:15 AM 44.6 °F 43.1 °F 44.6 °F 100% 29.79 in 3.0 mi South 3.5 mph - N/A   Scattered Clouds
11:35 AM 46.4 °F - 44.6 °F 93% 29.78 in 4.0 mi Calm Calm - N/A   Clear
11:55 AM 48.2 °F - 46.4 °F 93% 29.78 in 7.0 mi West 3.5 mph - N/A   Clear
12:15 PM 51.8 °F - 46.4 °F 82% 29.78 in 7.0 mi West 4.6 mph - N/A   Clear
12:35 PM 53.6 °F - 46.4 °F 77% 29.77 in 10.0 mi West 5.8 mph - N/A   Clear
12:55 PM 57.2 °F - 44.6 °F 63% 29.76 in 10.0 mi WSW 6.9 mph - N/A   Clear
1:15 PM 57.2 °F - 42.8 °F 59% 29.75 in 10.0 mi West 6.9 mph - N/A   Scattered Clouds
1:35 PM 57.2 °F - 39.2 °F 51% 29.74 in 10.0 mi West 4.6 mph - N/A   Mostly Cloudy
1:55 PM 59.0 °F - 39.2 °F 48% 29.74 in 10.0 mi North 5.8 mph - N/A   Scattered Clouds
2:15 PM 59.0 °F - 39.2 °F 48% 29.73 in 10.0 mi NNW 4.6 mph - N/A   Mostly Cloudy
2:35 PM 57.2 °F - 37.4 °F 48% 29.72 in 10.0 mi WNW 4.6 mph - N/A   Mostly Cloudy
3:15 PM 60.8 °F - 37.4 °F 42% 29.71 in 10.0 mi WNW 9.2 mph - N/A   Scattered Clouds
3:35 PM 60.8 °F - 35.6 °F 39% 29.71 in 10.0 mi NW 10.4 mph - N/A   Scattered Clouds
3:55 PM 62.6 °F - 37.4 °F 39% 29.71 in 10.0 mi North 10.4 mph 16.1 mph N/A   Mostly Cloudy
4:15 PM 60.8 °F - 35.6 °F 39% 29.72 in 10.0 mi NNW 10.4 mph - N/A   Scattered Clouds
4:35 PM 60.8 °F - 37.4 °F 42% 29.72 in 10.0 mi North 15.0 mph 21.9 mph N/A   Scattered Clouds
4:55 PM 59.0 °F - 35.6 °F 42% 29.73 in 10.0 mi NNW 15.0 mph 18.4 mph N/A   Scattered Clouds
5:15 PM 57.2 °F - 37.4 °F 48% 29.73 in 10.0 mi NNW 9.2 mph 19.6 mph N/A   Clear
5:35 PM 59.0 °F - 37.4 °F 45% 29.73 in 10.0 mi North 12.7 mph 17.3 mph N/A   Scattered Clouds
5:55 PM 57.2 °F - 37.4 °F 48% 29.74 in 10.0 mi NNE 10.4 mph - N/A   Scattered Clouds
6:15 PM 55.4 °F - 37.4 °F 51% 29.75 in 10.0 mi NNE 8.1 mph 17.3 mph N/A   Clear
6:35 PM 55.4 °F - 37.4 °F 51% 29.75 in 10.0 mi North 6.9 mph 16.1 mph N/A   Clear
6:55 PM 53.6 °F - 35.6 °F 51% 29.75 in 10.0 mi North 4.6 mph - N/A   Clear
7:15 PM 53.6 °F - 35.6 °F 51% 29.75 in 10.0 mi North 4.6 mph - N/A   Clear
7:35 PM 51.8 °F - 35.6 °F 54% 29.75 in 10.0 mi NNW 4.6 mph - N/A   Clear
7:55 PM 51.8 °F - 35.6 °F 54% 29.75 in 10.0 mi North 3.5 mph - N/A   Clear
8:15 PM 50.0 °F - 35.6 °F 58% 29.76 in 10.0 mi North 4.6 mph - N/A   Clear
8:35 PM 48.2 °F - 33.8 °F 58% 29.77 in 10.0 mi NNW 3.5 mph - N/A   Clear
8:55 PM 46.4 °F 45.2 °F 33.8 °F 62% 29.77 in 10.0 mi NNW 3.5 mph - N/A   Clear
9:15 PM 42.8 °F - 33.8 °F 70% 29.78 in 10.0 mi Calm Calm - N/A   Clear
9:35 PM 39.2 °F 37.0 °F 33.8 °F 81% 29.78 in 10.0 mi NNW 3.5 mph - N/A   Clear
9:55 PM 39.2 °F 37.0 °F 32.0 °F 75% 29.78 in 10.0 mi NNW 3.5 mph - N/A   Clear
10:15 PM 37.4 °F 34.9 °F 32.0 °F 81% 29.78 in 10.0 mi NNW 3.5 mph - N/A   Clear
10:35 PM 35.6 °F - 30.2 °F 81% 29.78 in 10.0 mi Calm Calm - N/A   Clear
10:55 PM 37.4 °F 34.9 °F 32.0 °F 81% 29.78 in 10.0 mi NNW 3.5 mph - N/A   Clear
11:15 PM 37.4 °F 34.9 °F 30.2 °F 75% 29.78 in 10.0 mi NNW 3.5 mph - N/A   Clear
11:35 PM 39.2 °F 35.9 °F 30.2 °F 70% 29.78 in 10.0 mi NNW 4.6 mph - N/A   Clear
11:55 PM 37.4 °F 33.8 °F 30.2 °F 75% 29.79 in 10.0 mi NNW 4.6 mph - N/A   Clear